Location: Newark
(48.6461°N, 4.3644°W)
Time: 01:56:51
(UTC+00:00)

Transit 4A - Pass Details

Date: 29 January 2020
Orbit: 872 x 973 km, 66.8° (Epoch: 19 February)

Event Time Altitude Azimuth Distance (km) Brightness Sun altitude
Rises 08:28:03 0° 268° (W) 3,517 10.4 4.4°
Reaches altitude 10° 08:31:14 10° 284° (WNW) 2,563 9.7 4.8°
Maximum altitude 08:35:37 21° 332° (NNW) 1,886 9.1 5.4°
Drops below altitude 10° 08:39:59 10° 20° (NNE) 2,538 10.1 6.0°
Sets 08:43:07 0° 37° (NE) 3,473 10.9 6.4°
